Language selection

Features

My Weather Profile Weather Topics  | 

Pacific - North Coast: Past 24 Hour Conditions

 

Sandspit Airport

05:00 AM PST 21 November 2019
Disclaimer

This table is a summary of hourly weather conditions for the past 24 hours.
Please note that these observations might not always be representative of weather conditions over their associated marine area.

Date / Time
(PST)
Wind(knots) Conditions Visibility(km) Pressure(kPa) Air tempC) Relative humidity(%) Dew pointC)
21 November 2019
5:00 SSE 18 Cloudy 16 100.9 9 86 7
4:00 SSE 10 Cloudy 16 101.0 8 82 5
3:00 SSE 13 Cloudy 16 101.1 8 80 5
2:00 SSE 17 gust 22 Cloudy 16 101.1 9 81 6
1:00 SSE 14 Cloudy 16 101.2 8 84 6
0:00 SSE 14 Cloudy 16 101.2 8 84 6
20 November 2019
23:00 SSE 21 Mostly Cloudy 16 101.2 9 86 6
22:00 SE 14 Mostly Cloudy 16 101.3 8 87 6
21:00 S 6 Mostly Cloudy 16 101.4 6 88 5
20:00 S 8 Partly Cloudy 16 101.5 6 89 5
19:00 SSE 6 Partly Cloudy 16 101.5 6 90 5
18:00 S 5 Mostly Cloudy 16 101.6 7 85 5
17:00 SSE 4 Partly Cloudy 16 101.7 8 94 7
16:00 S 5 Cloudy 16 101.8 9 88 7
15:00 SSE 10 Cloudy 16 101.8 9 88 7
14:00 SE 8 Cloudy 16 101.9 9 84 7
13:00 SSE 6 Partly Cloudy 16 102.0 9 85 7
12:00 SSE 8 Sunny 16 102.1 9 86 7
11:00 SSE 9 Cloudy 16 102.2 10 76 6
10:00 SSE 8 Mostly Cloudy 16 102.2 8 88 6
9:00 SE 2 Cloudy 16 102.3 6 93 5
8:00 WSW 5 Mist 8 102.3 6 92 5
7:00 calm Mostly Cloudy 16 102.3 6 84 4
6:00 WSW 2 Light Rain 16 102.3 7 90 5
5:00 calm Light Rain 16 102.4 7 83 5

Zoom-in to make a selection

Map of Pacific - North Coast marine weather areas Middle Nomad - 46004 South Nomad - 46036 Dixon Entrance Central - 46145 South Moresby - 46147 Nanakwa Shoal - 46181 North Hecate Strait - 46183 North Nomad - 46184 South Hecate Strait - 46185 West Sea Otter - 46204 West Dixon Entrance - 46205 East Dellwood - 46207 West Moresby - 46208 Sartine Island Cape St.James Kindakun Rocks Langara Island Masset Municipal Airport Rose Spit Sandspit Airport Bella Bella Airport Bella Coola Airport Bonilla Island Cathedral Point Cumshewa Island Grey Islet Holland Rock Lucy Islands Lightstation Prince Rupert Airport
Legend:
buoy Buoy
land station Land Station

Pacific - North Coast Area

Another Region

What we are doing

Date modified: